Pagrindinis puslapis
METAR-TAF:

METAR-TAF

Oro uostai :

Regional_Airport

Clinton, Oklahoma, Jungtinės Amerikos Valstijos

platuma: 35-32-17N, ilguma: 098-55-17W, Aukštis: 492 m

Dabartinis oras

Ataskaita buvo paskelbta 21 minutes, ne 10:35 UTC
Ramus vėjas
Temperatūra 10°C
Drėgmė 62%
Slėgis 1021 hPa
Matomumas: 16.1 km
Giedras dangus

METAR: KCLK 231035Z AUTO 00000KT 10SM CLR 10/03 A3016 RMK AO2

Laikas: 05:56 (10:56 UTC)


TAF: trūkstamas

Orai ataskaitas ir orų prognozės (METAR, TAF).

turimą stotys yra geltonos ir raudonos taškus žemėlapyje.

Perkelti pele per norėdami pamatyti stoties vardą.

Tada spustelėkite, norėdami matyti oro stebėjimo ir prognozės.

Norėdami pakeisti žemėlapį: spustelėkite ant žalios mygtukų su juodo kryžiaus žemyn,; žalią mygtuką su brūkšneliu, jei norite nutolinti; arba žalių rodyklių gretimoms žemėlapius.


METAR-TAF: